SCP
1 0 0 0 0 0 0 0 0 0 0 1 1 1 2 3 3 3 3 2 2 2 1 1 2 3 3 2 2 2 2 2 2 2 2 2 2 2 2 2 1 1 2 1
1 1 0 0 0 0 0 0 0 0 1 1 2 2 2 3 3 3 3 2 2 2 2 2 2 3 4 4 3 2 2 2 2 2 2 2 2 3 3 2 2 2 2 1
1 0 0 0 0 0 0 0 0 0 1 2 2 2 2 2 2 2 2 2 2 2 2 3 3 4 5 5 4 3 3 3 3 3 2 2 2 3 3 2 2 1 1 1
0 0 0 0 0 0 0 0 1 1 2 2 3 2 2 2 2 2 2 3 3 3 3 3 4 4 6 6 5 4 3 3 3 3 3 3 2 2 2 2 1 1 1 1
0 0 0 0 1 1 1 1 1 2 2 2 2 2 2 3 3 3 3 4 3 3 3 4 4 4 5 5 5 4 4 4 4 4 3 2 2 1 1 1 1 1 1 1
0 0 0 1 1 1 1 1 1 2 2 2 2 2 2 2 3 3 4 4 4 3 3 4 4 4 4 4 4 3 4 4 4 3 2 2 1 1 1 1 1 1 1 1
0 0 0 1 1 1 1 1 1 2 2 2 2 2 2 2 2 3 4 4 4 4 4 4 4 4 4 3 3 3 3 3 3 2 1 1 1 1 1 1 1 1 0 0
0 0 1 1 1 1 1 1 1 2 2 2 2 2 2 2 2 2 3 3 3 4 5 6 5 5 4 3 3 2 2 1 1 1 1 0 0 0 0 0 0 0 0 0
0 0 1 1 1 1 1 1 1 2 2 2 2 2 2 2 2 2 2 2 1 2 3 4 5 4 3 2 2 1 1 1 0 0 0 0 0 0 0 0 0 0 0 0
0 0 0 0 1 1 1 1 1 2 2 1 1 1 1 1 1 1 1 1 0 0 1 2 2 1 1 1 1 0 0 0 0 0 0 0 0 0 0 0 0 0 0 0
0 0 0 0 0 1 1 1 1 1 1 1 1 1 1 1 1 1 0 0 0 0 0 0 0 0 0 0 0 0 0 0 0 0 0 0 0 0 0 0 0 0 0 0
0 0 0 0 0 1 1 1 1 1 1 1 1 1 1 1 1 0 0 0 0 0 0 0 0 0 0 0 0 0 0 0 0 0 0 0 0 0 0 0 0 0 0 0
0 0 0 0 0 0 1 1 1 1 1 1 1 1 1 1 0 0 0 0 0 0 0 0 0 0 0 0 0 0 0 0 0 0 0 0 0 0 0 0 0 0 0 0
0 0 0 0 0 0 0 0 0 0 0 0 0 0 1 0 0 0 0 0 0 0 0 0 0 0 0 0 0 0 0 0 0 0 0 0 0 0 0 0 0 0 0 0
0 0 0 0 0 0 0 0 0 0 0 0 0 0 0 0 0 0 0 0 0 0 0 0 0 0 0 0 0 0 0 0 0 0 0 0 0 0 0 0 0 0 0 0
0 0 0 0 0 0 0 0 0 0 0 0 0 0 0 0 0 0 0 0 0 0 0 0 0 0 0 0 0 0 0 0 0 0 0 0 0 0 0 0 0 0 0 0
0 0 0 0 0 0 0 0 0 0 0 0 0 0 0 0 0 0 0 0 0 0 0 0 0 0 0 0 0 0 0 0 0 0 0 0 0 0 0 0 0 0 0 0
0 0 0 0 0 0 0 0 0 0 0 0 0 0 0 0 0 0 0 0 0 0 0 0 0 0 0 0 0 0 0 0 0 0 0 0 0 0 0 0 0 0 0 0
0 0 0 0 0 0 0 0 0 0 0 0 0 0 0 0 0 0 0 0 0 0 0 0 0 0 0 0 0 0 0 0 0 0 0 0 0 0 0 0 0 0 0 0
0 0 0 0 0 0 0 0 0 0 0 0 0 0 0 0 0 0 0 0 0 0 0 0 0 0 0 0 0 0 0 0 0 0 0 0 0 0 0 0 0 0 0 0
0 0 0 0 0 0 0 0 0 0 0 0 0 0 0 0 0 0 0 0 0 0 0 0 0 0 0 0 0 0 0 0 0 0 0 0 0 0 0 0 0 0 0 0
0 0 0 0 0 0 0 0 0 0 0 0 0 0 0 0 0 0 0 0 0 0 0 0 0 0 0 0 0 0 0 0 0 0 0 0 0 0 0 0 0 0 0 0
0 0 0 0 0 0 0 0 0 0 0 0 0 0 0 0 0 0 0 0 0 0 0 0 0 0 0 0 0 0 0 0 0 0 0 0 0 0 0 0 0 0 0 0
0 0 0 0 0 0 0 0 0 0 0 0 0 0 0 0 0 0 0 0 0 0 0 0 0 0 0 0 0 0 0 0 0 0 0 0 0 0 0 0 0 0 0 0
0 0 0 0 0 0 0 0 0 0 0 0 0 0 0 0 0 0 0 0 0 0 0 0 0 0 0 0 0 0 0 0 0 0 0 0 0 0 0 0 0 0 0 0
0 0 0 0 0 0 0 0 0 0 0 0 0 0 0 0 0 0 0 0 0 0 0 0 0 0 0 0 0 0 0 0 0 0 0 0 0 0 0 0 0 0 0 0
0 0 0 0 0 0 0 0 0 0 0 0 0 0 0 0 0 0 0 0 0 0 0 0 0 0 0 0 0 0 0 0 0 0 0 0 0 0 0 0 0 0 0 0
Wind_Speed
10 7 7 10 11 11 14 15 15 13 12 8 3 4 7 9 10 12 12 12 12 12 11 11 11 11 11 10 10 10 10 9 9 8 8 7 6 6 5 5 5 5 4 4
11 10 11 13 13 14 15 15 16 16 14 6 0 3 6 8 10 11 12 13 13 12 12 12 11 11 11 11 11 10 10 9 8 8 7 7 6 5 5 4 3 2 2 2
12 11 11 15 15 16 16 16 16 16 12 3 3 3 4 6 9 9 10 11 12 11 11 10 10 10 11 10 10 10 10 9 8 7 7 6 6 6 5 4 4 4 4 4
11 10 16 10 4 8 13 15 14 13 7 3 1 2 2 1 5 8 9 9 9 9 9 9 9 9 10 10 10 10 9 8 8 7 7 6 6 6 6 6 6 6 6 6
9 14 14 11 5 6 10 13 7 7 4 1 4 4 3 2 3 4 6 7 7 8 9 9 10 10 11 11 10 9 9 8 8 8 8 8 8 8 7 7 7 7 7 8
10 12 12 5 3 4 7 11 1 2 1 3 6 6 4 6 6 6 6 6 7 8 9 10 10 11 12 11 11 10 9 8 8 8 9 10 9 8 8 8 8 8 9 9
13 13 10 3 3 4 9 3 6 4 2 3 3 2 8 9 8 8 9 9 9 10 10 9 10 11 12 12 11 10 10 10 10 10 10 11 10 8 8 8 9 9 9 9
9 11 8 5 4 5 6 8 6 4 2 2 6 10 10 10 10 10 10 11 11 11 12 11 11 12 13 12 11 11 11 12 11 10 10 10 10 9 9 9 9 9 8 7
6 5 5 5 6 7 7 7 5 3 1 5 9 10 11 11 11 11 12 12 12 13 14 12 11 12 14 12 11 12 12 12 11 11 10 9 9 9 8 6 5 5 5 5
8 7 6 7 7 6 6 5 3 1 4 8 10 12 13 12 11 12 12 12 13 14 15 14 13 13 12 11 10 12 12 11 11 11 10 9 6 6 6 5 4 4 4 4
9 8 7 4 4 5 3 2 2 5 6 9 13 14 14 13 12 11 12 12 12 13 14 14 12 12 11 10 10 12 11 10 10 10 10 9 10 9 8 10 8 5 5 4
6 6 5 5 4 2 0 1 4 8 10 12 14 15 15 14 12 12 13 12 13 14 14 14 13 12 11 10 10 10 9 8 7 7 7 7 9 10 16 13 14 16 15 10
6 6 4 3 2 1 3 5 7 10 13 15 14 15 16 14 13 13 13 13 14 14 14 13 12 11 10 9 9 9 8 7 6 6 6 6 6 7 8 9 12 13 12 12
3 2 2 3 4 6 8 10 12 14 15 15 15 15 15 15 14 14 13 13 13 13 13 12 12 11 9 9 8 8 8 7 5 5 5 4 4 4 4 5 6 7 8 8
4 5 5 7 8 10 11 14 15 15 16 16 15 14 15 15 14 13 12 12 12 13 12 12 11 10 8 8 8 8 6 6 5 5 4 5 4 4 4 4 4 4 4 6
6 8 9 10 11 13 14 16 16 16 16 16 15 15 15 15 14 13 12 11 12 12 11 11 10 8 7 8 8 7 7 8 4 4 4 4 4 3 3 3 3 3 3 4
7 9 11 12 14 14 14 15 15 16 16 16 16 16 16 15 14 13 12 12 12 11 10 10 9 7 7 6 5 5 6 6 4 3 4 4 3 3 3 3 3 3 4 6
8 10 12 13 14 15 15 15 15 15 15 16 16 15 15 14 14 13 12 11 11 10 9 8 7 7 6 6 4 3 4 4 4 4 4 3 3 3 3 3 3 3 2 4
13 14 14 15 15 14 14 14 14 14 15 14 14 14 13 13 12 12 11 10 10 9 8 7 5 6 6 5 2 3 3 4 4 4 4 3 2 3 3 3 3 3 3 3
15 15 16 16 16 15 15 15 15 14 13 13 14 14 13 12 11 11 10 8 6 6 7 6 5 6 6 4 2 3 4 4 4 3 3 3 3 3 3 3 3 3 3 3
15 16 16 15 15 15 14 14 13 13 12 12 12 12 12 11 10 9 8 8 8 7 6 4 4 4 5 3 1 3 4 4 4 3 3 3 3 3 3 3 3 3 3 3
14 14 15 14 14 13 12 11 12 12 11 11 11 11 11 10 9 8 7 6 7 4 3 4 6 7 4 1 3 4 4 4 3 3 3 3 3 2 3 3 3 3 3 3
12 12 13 13 13 12 12 11 11 10 10 10 9 9 8 7 6 6 7 6 6 4 4 7 8 5 3 0 4 4 4 4 3 3 3 2 2 2 2 2 2 2 3 3
12 12 12 12 12 12 11 10 10 9 9 9 8 8 8 7 6 6 8 8 6 4 6 8 5 1 4 2 3 3 4 3 2 2 3 2 2 2 2 2 2 2 2 3
11 11 11 10 9 9 9 10 10 9 9 8 9 8 6 6 6 7 8 9 7 5 8 8 4 3 2 3 3 3 3 4 4 3 2 2 2 2 2 2 2 2 3 3
9 8 7 6 6 6 6 6 6 6 6 7 6 6 6 6 8 7 7 8 8 5 6 6 5 4 2 3 3 2 3 4 2 1 2 2 2 2 2 2 3 3 3 3
8 7 6 6 5 4 4 5 5 6 6 6 6 6 6 6 6 7 7 7 7 6 5 5 4 3 3 3 3 2 2 1 1 1 1 1 1 1 1 2 3 3 4 4
Wind_Direction
267 280 269 258 248 237 241 256 268 274 275 281 242 206 186 180 174 170 168 169 169 168 165 167 168 169 170 169 168 167 169 172 173 171 170 175 177 183 191 202 206 203 205 210
258 256 259 260 255 249 247 253 258 267 271 286 241 175 184 184 179 177 173 171 169 169 169 170 171 171 169 169 166 166 168 168 166 165 166 167 168 171 172 171 171 160 154 139
260 258 263 253 249 251 252 251 253 260 271 252 208 193 186 186 185 180 175 170 167 167 169 169 171 169 166 162 160 161 161 160 157 158 160 157 155 149 142 131 114 100 94 92
263 259 251 260 289 281 271 266 263 265 274 284 311 101 100 187 189 173 166 161 159 159 155 155 156 156 153 149 150 151 149 144 140 144 141 135 128 116 108 102 98 96 92 88
258 253 256 257 257 278 276 269 278 277 268 148 119 137 134 94 114 132 139 141 142 147 146 145 146 143 140 138 136 134 130 128 127 129 124 117 108 104 102 104 103 100 93 88
247 257 260 271 44 348 282 258 9 338 265 176 185 222 150 115 106 106 107 117 124 125 124 127 132 134 130 128 125 121 118 115 112 111 111 108 104 103 104 105 103 99 90 83
248 252 258 350 357 274 250 319 24 355 326 227 230 37 102 111 104 105 106 108 110 110 108 108 114 118 115 111 110 111 109 104 101 101 103 103 103 104 107 105 101 97 94 89
248 249 250 41 314 288 331 343 334 335 354 81 101 107 113 111 108 105 103 101 101 99 97 96 102 106 103 100 103 106 104 101 99 100 101 103 104 102 103 109 111 108 104 99
272 283 355 334 309 310 305 299 307 315 81 126 127 124 120 113 107 102 100 98 99 100 96 92 93 99 100 99 102 102 100 99 99 98 96 101 105 108 110 111 108 109 109 104
265 266 291 304 305 303 294 283 271 212 150 142 133 126 120 114 108 106 102 100 101 100 96 91 89 90 94 100 105 105 103 102 102 100 97 90 89 91 88 84 91 97 93 92
264 276 286 298 326 321 319 287 177 152 146 138 129 125 122 115 110 106 102 100 99 98 97 96 94 95 97 101 103 103 103 104 103 98 93 85 70 49 54 53 37 36 54 56
286 315 302 309 323 324 20 111 136 134 128 123 122 121 116 111 109 107 103 102 101 98 98 97 95 94 93 95 100 105 108 109 108 107 106 108 106 89 57 64 65 59 49 50
298 318 323 318 339 24 101 106 115 118 118 115 113 114 111 108 105 104 102 101 101 99 98 97 94 92 90 92 94 93 95 96 102 106 113 116 120 122 116 96 82 75 69 65
335 345 21 51 74 84 97 100 103 102 104 107 108 109 109 107 105 103 102 103 103 101 99 97 95 91 92 95 96 98 100 94 95 99 100 99 100 106 114 124 124 112 102 97
46 63 88 94 94 99 102 106 104 103 106 106 107 110 111 110 108 107 108 108 106 103 100 98 93 89 90 95 96 94 93 93 89 92 96 94 95 94 90 89 89 94 111 123
98 99 101 103 103 105 106 109 110 111 112 114 114 114 113 112 110 109 109 109 105 100 97 95 91 88 88 93 99 97 86 68 73 99 100 101 98 92 89 89 87 78 66 50
120 116 113 112 108 107 106 107 111 115 117 118 118 117 116 114 112 110 107 102 99 99 99 97 95 93 92 91 93 98 103 106 115 95 82 78 79 77 74 67 66 62 70 66
103 106 111 113 112 109 109 109 111 113 116 119 120 121 121 119 116 114 112 110 105 99 94 95 97 98 94 87 78 83 96 95 87 80 83 70 62 69 66 63 55 40 57 108
106 107 108 108 109 110 110 110 111 113 116 120 120 119 117 116 117 118 120 119 116 110 103 101 103 105 96 83 76 104 93 96 96 90 90 100 83 67 60 47 40 35 26 20
111 111 110 110 111 112 113 114 115 115 117 119 118 118 118 120 122 123 120 108 94 98 110 109 114 99 99 84 356 89 87 87 85 86 84 85 79 73 66 54 40 29 20 5
116 115 114 112 111 111 112 115 116 117 120 121 121 121 121 123 127 129 127 112 98 98 106 116 107 100 94 96 140 96 94 86 83 78 78 78 72 63 55 39 30 24 17 4
116 115 114 112 111 109 111 114 115 117 118 119 121 123 126 128 125 114 97 98 112 118 130 111 91 74 61 314 99 89 87 86 86 85 77 65 63 58 50 37 29 23 14 8
114 115 115 114 113 112 111 112 113 115 118 121 124 126 124 118 121 121 112 107 115 117 102 85 87 87 311 206 85 85 85 82 77 76 72 61 58 57 51 35 31 21 9 357
113 112 112 114 115 113 110 108 107 109 113 115 115 118 122 121 112 102 104 107 100 107 95 96 105 89 276 103 93 91 87 84 80 69 67 65 60 57 48 28 18 10 1 345
109 110 112 117 117 113 114 116 116 117 115 112 114 116 113 108 111 112 116 120 124 131 118 122 142 253 242 90 91 87 83 57 38 25 52 47 35 40 31 13 0 346 345 343
109 108 103 99 100 114 122 124 123 122 122 120 115 110 108 111 118 123 127 132 132 135 130 138 153 199 146 114 108 102 100 125 154 153 52 27 27 9 359 354 343 336 338 338
117 117 116 112 112 112 120 125 126 126 126 126 123 120 121 125 129 133 137 140 143 146 142 149 153 152 132 122 114 113 107 98 71 43 42 21 359 341 342 322 322 329 324 325